Flight Information

DEPARTURE
CHINO, CA
Elevation:
650
Runways:
8R/26L - 7000x150 - ASPH-G
8L/26R - 4858x150 - ASPH-G
3/21 - 4919x150 - ASPH-G
Active PE Departure:
26L - 26R
Current PE ATIS:
Y
Altimeter:
30.10
Remarks:
ATIS:
125.85 909-393-5365
Ground:
121.6
Tower:
118.5
DESTINATION
,
Elevation:
TPA:
1000 (est.)


6757.1 NM74° True-14° Var60° HDG

Flight Plan:
(click to file on line)

1. Type
2. Aircraft Identification
3. Aircraft Type / Special Equipment
4. True Airspeed
kts
5. Departure Airport
(ICAO code)
6. Arriving Airport
(ICAO code)
7. Cruising Altitude
ft
8. Alternate Airport
(ICAO code)
9. Route of Flight
10. Remarks


00:00:00 Departure ATIS: Destination ATIS:

Clearance Limit:
Route:
Altitude: Expect in minutes
Frequency:
Transponder: (7500 Hijack / 7600 Lost Comms / 7700 Emergency)


KCNO 211553Z COR 00000KT 10SM CLR 24/14 A3010 RMK AO2 SLP188 T02440139
Time: 2021-09-21T15:53:00Z
1632242665
Winds: calm
Visibility: 10.0 sm
Clouds (AGL): CLR
Temperature: 24.4 C
Dew Point: 13.9 C
Pressure: 30.100393 in Hgbr


Notes:

Data extracted from FAA Digital Chart Supplement. Effective: 0901Z Thursday, AUG 12, 2021 to 0901Z Thursday, OCT 7, 2021
Current ATIS data is provided courtisy of PilotEdge.